When you browse on this site, cookies collect data to enhance your experience and personalize the content and advertising you see.
Visit our Privacy Policy to learn more. By continuing to use the site, you agree to this use of cookies and data.

Météo par heure à Maturín

Ce jour, 9 Août, Dimanche

Heure Température Précipitation Vent Pression Humidité
00:00 +26°C° 0 mm 1 m/s 757 mmHg 94%
01:00 +25°C° 0 mm 1 m/s 757 mmHg 95%
02:00 +25°C° 0 mm 1 m/s 757 mmHg 96%
03:00 +25°C° 0.1 mm 1 m/s 756 mmHg 96%
04:00 +25°C° 0.1 mm 1 m/s 756 mmHg 97%
05:00 +23°C° 0.1 mm 0 m/s 756 mmHg 97%
06:00 +26°C° 0 mm 1 m/s 757 mmHg 94%
07:00 +27°C° 0 mm 1 m/s 757 mmHg 90%
08:00 +28°C° 0 mm 1 m/s 757 mmHg 87%
09:00 +29°C° 0.4 mm 1 m/s 757 mmHg 82%
10:00 +30°C° 0.4 mm 1 m/s 757 mmHg 77%
11:00 +32°C° 0.4 mm 1 m/s 758 mmHg 73%
12:00 +32°C° 0.7 mm 1 m/s 757 mmHg 74%
13:00 +32°C° 0.7 mm 1 m/s 756 mmHg 75%
14:00 +32°C° 0.7 mm 2 m/s 756 mmHg 77%
15:00 +31°C° 0.6 mm 2 m/s 755 mmHg 79%
16:00 +31°C° 0.6 mm 2 m/s 755 mmHg 82%
17:00 +30°C° 0.6 mm 2 m/s 754 mmHg 85%
18:00 +29°C° 0.1 mm 2 m/s 755 mmHg 88%
19:00 +28°C° 0.1 mm 2 m/s 755 mmHg 92%
20:00 +27°C° 0.1 mm 1 m/s 756 mmHg 95%
21:00 +26°C° 0.1 mm 1 m/s 756 mmHg 96%
22:00 +26°C° 0.1 mm 1 m/s 756 mmHg 96%
23:00 +26°C° 0.1 mm 1 m/s 757 mmHg 96%

Demain, 10 Août, Lundi

Heure Température Précipitation Vent Pression Humidité
00:00 +26°C° 0 mm 1 m/s 756 mmHg 97%
01:00 +26°C° 0 mm 1 m/s 756 mmHg 97%
02:00 +25°C° 0 mm 1 m/s 755 mmHg 97%
03:00 +25°C° 0 mm 1 m/s 755 mmHg 97%
04:00 +25°C° 0 mm 1 m/s 755 mmHg 98%
05:00 +25°C° 0 mm 1 m/s 755 mmHg 98%
06:00 +26°C° 0.1 mm 1 m/s 755 mmHg 96%
07:00 +27°C° 0.1 mm 1 m/s 756 mmHg 94%
08:00 +27°C° 0.1 mm 1 m/s 756 mmHg 92%
09:00 +28°C° 0.5 mm 1 m/s 756 mmHg 88%
10:00 +29°C° 0.5 mm 2 m/s 756 mmHg 85%
11:00 +30°C° 0.5 mm 2 m/s 756 mmHg 81%
12:00 +30°C° 1 mm 2 m/s 756 mmHg 81%
13:00 +31°C° 1 mm 2 m/s 755 mmHg 81%
14:00 +31°C° 1 mm 1 m/s 754 mmHg 80%
15:00 +30°C° 0.7 mm 2 m/s 754 mmHg 82%
16:00 +30°C° 0.7 mm 2 m/s 753 mmHg 84%
17:00 +30°C° 0.7 mm 2 m/s 753 mmHg 86%
18:00 +29°C° 0.5 mm 2 m/s 753 mmHg 89%
19:00 +28°C° 0.5 mm 2 m/s 753 mmHg 93%
20:00 +26°C° 0.5 mm 1 m/s 754 mmHg 96%
21:00 +26°C° 0.2 mm 1 m/s 754 mmHg 96%
22:00 +26°C° 0.2 mm 1 m/s 755 mmHg 97%
23:00 +26°C° 0.2 mm 1 m/s 755 mmHg 97%

Après-demain, 11 Août, Mardi

Heure Température Précipitation Vent Pression Humidité
00:00 +25°C° 0 mm 1 m/s 755 mmHg 97%
01:00 +25°C° 0 mm 1 m/s 754 mmHg 98%
02:00 +25°C° 0 mm 1 m/s 754 mmHg 98%
03:00 +25°C° 0 mm 1 m/s 754 mmHg 98%
04:00 +25°C° 0 mm 1 m/s 754 mmHg 98%
05:00 +25°C° 0 mm 1 m/s 754 mmHg 98%
06:00 +26°C° 0 mm 1 m/s 754 mmHg 96%
07:00 +26°C° 0 mm 1 m/s 754 mmHg 94%
08:00 +27°C° 0 mm 1 m/s 755 mmHg 92%
09:00 +29°C° 0.1 mm 1 m/s 755 mmHg 84%
10:00 +31°C° 0.1 mm 1 m/s 755 mmHg 76%
11:00 +32°C° 0.1 mm 1 m/s 755 mmHg 68%
12:00 +34°C° 1.1 mm 2 m/s 754 mmHg 68%
13:00 +34°C° 1.1 mm 2 m/s 753 mmHg 67%
14:00 +34°C° 1.1 mm 2 m/s 753 mmHg 67%
15:00 +32°C° 0.9 mm 2 m/s 752 mmHg 69%
16:00 +32°C° 0.9 mm 2 m/s 752 mmHg 71%
17:00 +31°C° 0.9 mm 3 m/s 752 mmHg 73%
18:00 +30°C° 0 mm 3 m/s 752 mmHg 77%
19:00 +29°C° 0 mm 3 m/s 753 mmHg 81%
20:00 +27°C° 0 mm 3 m/s 753 mmHg 85%
21:00 +27°C° 0.1 mm 2 m/s 754 mmHg 87%
22:00 +27°C° 0.1 mm 2 m/s 754 mmHg 89%
23:00 +26°C° 0.1 mm 2 m/s 755 mmHg 91%

12 Août, Mercredi

Heure Température Précipitation Vent Pression Humidité
00:00 +26°C° 0.2 mm 2 m/s 754 mmHg 93%
01:00 +26°C° 0.2 mm 1 m/s 754 mmHg 95%
02:00 +25°C° 0.2 mm 1 m/s 753 mmHg 97%
03:00 +25°C° 0.1 mm 1 m/s 753 mmHg 97%
04:00 +25°C° 0.1 mm 1 m/s 753 mmHg 97%
05:00 +25°C° 0.1 mm 1 m/s 753 mmHg 97%
06:00 +26°C° 0.3 mm 1 m/s 754 mmHg 95%
07:00 +27°C° 0.3 mm 1 m/s 754 mmHg 93%
08:00 +28°C° 0.3 mm 1 m/s 755 mmHg 90%
09:00 +29°C° 1.8 mm 1 m/s 755 mmHg 88%
10:00 +30°C° 1.8 mm 2 m/s 755 mmHg 85%
11:00 +30°C° 1.8 mm 2 m/s 755 mmHg 83%
12:00 +31°C° 0.9 mm 2 m/s 754 mmHg 80%
13:00 +31°C° 0.9 mm 2 m/s 753 mmHg 78%
14:00 +31°C° 0.9 mm 1 m/s 752 mmHg 75%
15:00 +31°C° 0.8 mm 2 m/s 752 mmHg 79%
16:00 +30°C° 0.8 mm 2 m/s 752 mmHg 83%
17:00 +30°C° 0.8 mm 2 m/s 751 mmHg 87%
18:00 +29°C° 0.1 mm 2 m/s 752 mmHg 89%
19:00 +28°C° 0.1 mm 2 m/s 752 mmHg 91%
20:00 +27°C° 0.1 mm 2 m/s 753 mmHg 93%
21:00 +26°C° 0.1 mm 2 m/s 754 mmHg 94%
22:00 +26°C° 0.1 mm 2 m/s 754 mmHg 96%
23:00 +26°C° 0.1 mm 1 m/s 755 mmHg 97%

13 Août, Jeudi

Heure Température Précipitation Vent Pression Humidité
00:00 +26°C° 0.1 mm 1 m/s 754 mmHg 97%
01:00 +25°C° 0.1 mm 1 m/s 754 mmHg 98%
02:00 +25°C° 0.1 mm 1 m/s 753 mmHg 98%
03:00 +25°C° 0.2 mm 1 m/s 753 mmHg 98%
04:00 +25°C° 0.2 mm 1 m/s 753 mmHg 98%
05:00 +25°C° 0.2 mm 1 m/s 753 mmHg 98%
06:00 +26°C° 0 mm 1 m/s 753 mmHg 96%
07:00 +27°C° 0 mm 2 m/s 754 mmHg 94%
08:00 +28°C° 0 mm 2 m/s 754 mmHg 92%
09:00 +28°C° 0.9 mm 2 m/s 754 mmHg 90%
10:00 +29°C° 0.9 mm 2 m/s 754 mmHg 88%
11:00 +30°C° 0.9 mm 2 m/s 754 mmHg 87%
12:00 +30°C° 2.2 mm 3 m/s 754 mmHg 87%
13:00 +30°C° 2.2 mm 3 m/s 753 mmHg 88%
14:00 +30°C° 2.2 mm 3 m/s 752 mmHg 88%
15:00 +29°C° 0.7 mm 3 m/s 752 mmHg 89%
16:00 +29°C° 0.7 mm 2 m/s 752 mmHg 89%
17:00 +29°C° 0.7 mm 2 m/s 751 mmHg 90%
18:00 +28°C° 0.1 mm 2 m/s 752 mmHg 90%
19:00 +27°C° 0.1 mm 2 m/s 753 mmHg 91%
20:00 +27°C° 0.1 mm 2 m/s 753 mmHg 91%
21:00 +26°C° 0.1 mm 2 m/s 753 mmHg 92%
22:00 +26°C° 0.1 mm 2 m/s 754 mmHg 93%
23:00 +26°C° 0.1 mm 1 m/s 754 mmHg 94%

14 Août, Vendredi

Heure Température Précipitation Vent Pression Humidité
00:00 +25°C° 0.1 mm 1 m/s 753 mmHg 95%
01:00 +25°C° 0.1 mm 1 m/s 753 mmHg 96%
02:00 +25°C° 0.1 mm 1 m/s 752 mmHg 97%
03:00 +25°C° 0.1 mm 1 m/s 752 mmHg 97%
04:00 +25°C° 0.1 mm 1 m/s 752 mmHg 97%
05:00 +25°C° 0.1 mm 1 m/s 752 mmHg 97%
06:00 +26°C° 0 mm 1 m/s 753 mmHg 95%
07:00 +27°C° 0 mm 2 m/s 753 mmHg 93%
08:00 +27°C° 0 mm 2 m/s 754 mmHg 90%
09:00 +29°C° 0.1 mm 2 m/s 754 mmHg 85%
10:00 +30°C° 0.1 mm 3 m/s 754 mmHg 79%
11:00 +31°C° 0.1 mm 3 m/s 754 mmHg 73%
12:00 +33°C° 0.5 mm 3 m/s 753 mmHg 73%
13:00 +33°C° 0.5 mm 3 m/s 752 mmHg 73%
14:00 +33°C° 0.5 mm 3 m/s 752 mmHg 73%
15:00 +31°C° 1.1 mm 3 m/s 751 mmHg 77%
16:00 +31°C° 1.1 mm 2 m/s 751 mmHg 81%
17:00 +30°C° 1.1 mm 2 m/s 751 mmHg 85%
18:00 +29°C° 0.1 mm 2 m/s 751 mmHg 87%
19:00 +28°C° 0.1 mm 2 m/s 752 mmHg 90%
20:00 +27°C° 0.1 mm 2 m/s 752 mmHg 93%
21:00 +27°C° 0 mm 2 m/s 753 mmHg 94%
22:00 +26°C° 0 mm 2 m/s 753 mmHg 94%
23:00 +26°C° 0 mm 1 m/s 753 mmHg 95%
Voir plus